Location: Cercedilla
(40.7379°N, 4.0638°W)
Time: 07:06:40
(UTC+00:00)

SL-4 R/B - Pass Details

Date: 07 June 2020
Orbit: 428 x 666 km, 51.6° (Epoch: 14 July)

Event Time Altitude Azimuth Distance (km) Brightness Sun altitude
Rises 01:06:21 0° 306° (NW) 3,004 6.1 -25.4°
Reaches altitude 10° 01:08:57 10° 316° (NW) 2,091 5.3 -25.3°
Maximum altitude 01:13:17 32° 20° (NNE) 1,141 4.2 -25.1°
Drops below altitude 10° 01:17:31 10° 83° (E) 2,041 5.2 -24.8°
Sets 01:20:01 0° 94° (E) 2,920 5.9 -24.7°
